Stations météo

réclame
Mon MeteoGroup
Blois, France (7245): Température de l'air & dewpoint: 20.05.2018 23:00:00 - 26.05.2018 23:00:00 (CEST)Blois, France (7245): Température de l'air 5cm: 20.05.2018 23:00:00 - 26.05.2018 23:00:00 (CEST)Blois, France (7245): Température de l'air -20cm & Température de l'air -100cm: 20.05.2018 23:00:00 - 26.05.2018 23:00:00 (CEST)Blois, France (7245): Vitesse du vent & gusts: 20.05.2018 23:00:00 - 26.05.2018 23:00:00 (CEST)Blois, France (7245): Direction du vent: 20.05.2018 23:00:00 - 26.05.2018 23:00:00 (CEST)Blois, France (7245): reduced air pressure: 20.05.2018 23:00:00 - 26.05.2018 23:00:00 (CEST)Blois, France (7245): visibility: 20.05.2018 23:00:00 - 26.05.2018 23:00:00 (CEST)Blois, France (7245): Ensoleillement: 20.05.2018 23:00:00 - 26.05.2018 23:00:00 (CEST)Blois, France (7245): Quantités de précipitations: 20.05.2018 23:00:00 - 26.05.2018 23:00:00 (CEST)
Date & Time tt [°C] td [°C] tt 5cm [°C] tt -20cm [°C] tt -100cm [°C] ff [km/h] ff [knt] fx [km/h] fx [knt] dd ppp [hPa] vv [km] sd [min] rr [mm]
26.05.2018 23:00:00 15,4 14,4 - - - 2 1 13 7 NNE 1015,0 17 0 -
26.05.2018 22:00:00 15,7 14,7 15,7 16,9 13,5 9 5 12 6 E 1014,3 20 0 0,0
26.05.2018 21:00:00 16,6 15,3 16,1 16,9 13,5 8 4 24 13 E 1014,5 20 0 0,0
26.05.2018 20:00:00 18,3 14,2 16,8 16,9 13,5 18 10 50 27 SSW 1014,7 5 0 0,0
26.05.2018 19:00:00 19,4 12,4 19,0 16,8 13,5 38 20 64 35 SW 1014,0 20 4 0,0
26.05.2018 18:00:00 27,1 14,8 24,9 16,6 13,5 22 12 36 19 ESE 1011,8 20 58 0,0
26.05.2018 17:00:00 27,5 15,2 25,9 16,6 13,5 23 12 34 18 ESE 1012,0 20 53 0,0
26.05.2018 16:00:00 27,4 14,1 26,6 16,4 13,4 23 12 38 20 ESE 1012,6 20 60 0,0
26.05.2018 15:00:00 27,2 14,9 25,5 16,4 13,5 24 13 40 22 SE 1012,9 20 60 0,0
26.05.2018 14:00:00 26,1 14,2 23,9 16,3 13,4 23 13 39 21 SSE 1013,1 20 55 0,0
26.05.2018 13:00:00 25,0 15,0 23,2 16,2 13,4 21 11 37 20 SE 1013,3 20 60 0,0
26.05.2018 12:00:00 23,7 14,7 22,9 16,2 13,4 21 11 31 17 SE 1013,6 20 60 0,2
26.05.2018 11:00:00 22,6 16,8 21,2 16,2 13,4 12 7 23 12 SE 1013,6 20 60 0,0
26.05.2018 10:00:00 20,4 17,4 17,9 16,2 13,4 14 8 25 13 ESE 1013,7 19 60 0,0
26.05.2018 09:00:00 17,3 16,3 16,3 16,2 13,4 18 10 29 16 E 1013,7 7 14 0,0
26.05.2018 08:00:00 15,7 15,1 15,5 16,3 13,4 14 8 23 13 E 1013,9 2,5 0 0,0
26.05.2018 07:00:00 15,3 14,5 14,8 16,3 13,4 7 4 27 15 ENE 1013,9 3,4 0 0,0
26.05.2018 06:00:00 15,0 14,2 14,8 16,3 13,4 14 7 20 11 NNE 1013,2 3,7 0 0,0
26.05.2018 05:00:00 15,1 14,5 15,1 16,3 13,4 11 6 19 10 NNE 1013,7 2,8 0 0,0
26.05.2018 04:00:00 15,2 14,4 15,2 16,3 13,4 8 4 17 9 NNE 1014,6 3,1 0 0,0
26.05.2018 03:00:00 15,6 14,8 15,5 16,3 13,4 10 5 22 12 NE 1014,9 3,5 0 0,0
26.05.2018 02:00:00 15,9 15,1 15,9 16,3 13,4 11 6 21 11 NNE 1015,0 4,7 0 0,2
26.05.2018 01:00:00 16,0 15,2 15,9 16,3 13,4 10 5 19 11 NNE 1015,5 5 0 0,0
26.05.2018 00:00:00 16,0 15,2 15,8 16,3 13,3 10 5 19 10 N 1015,9 4,6 0 0,0
25.05.2018 23:00:00 16,4 15,4 16,4 16,3 13,3 10 5 22 12 N 1015,8 7 0 0,2
25.05.2018 22:00:00 17,1 16,1 16,9 16,3 13,4 7 4 25 14 NNE 1015,7 7 7 0,6
25.05.2018 21:00:00 18,0 15,8 17,3 16,2 13,3 6 3 23 13 NNW 1015,7 3,2 7 0,2
25.05.2018 20:00:00 19,7 17,3 19,0 16,1 13,3 14 8 24 13 N 1014,9 19 0 0,0
25.05.2018 19:00:00 20,5 16,9 19,9 16,1 13,3 13 7 23 12 NNW 1014,1 20 12 0,2
25.05.2018 18:00:00 19,9 17,1 19,5 16,0 13,3 8 4 26 14 NW 1015,0 20 0 2,8
25.05.2018 17:00:00 22,3 15,4 21,5 15,9 13,3 21 11 29 15 WNW 1014,6 20 0 0,0
25.05.2018 16:00:00 24,7 14,8 22,7 15,8 13,3 8 4 12 6 NNW 1014,5 20 0 0,0
25.05.2018 15:00:00 25,5 14,6 24,3 15,7 13,3 4 2 13 7 E 1015,2 18 20 0,0
25.05.2018 14:00:00 25,1 16,3 22,3 15,7 13,3 4 2 12 7 NE 1015,4 20 26 0,0
25.05.2018 13:00:00 23,0 15,6 22,3 15,6 13,3 4 2 14 7 ENE 1015,8 20 0 0,0
25.05.2018 12:00:00 22,4 16,4 22,3 15,6 13,3 9 5 18 10 E 1015,7 19 11 0,0
25.05.2018 11:00:00 22,6 16,2 19,9 15,6 13,3 9 5 15 8 NNE 1015,6 20 30 0,0
25.05.2018 10:00:00 19,4 14,9 17,5 15,6 13,3 9 5 19 10 NE 1016,1 18 49 0,0
25.05.2018 09:00:00 18,1 14,0 15,0 15,7 13,3 9 5 16 9 NE 1016,1 14 54 0,0
25.05.2018 08:00:00 14,7 13,1 13,5 15,7 13,3 10 5 16 9 NNE 1016,2 6 17 0,0
25.05.2018 07:00:00 13,8 12,7 12,0 15,8 13,3 5 3 12 6 NNE 1016,2 5 27 0,0
25.05.2018 06:00:00 12,9 12,0 11,1 15,9 13,3 8 4 13 7 NNE 1016,0 3,8 0 0,0
25.05.2018 05:00:00 13,0 11,9 11,1 15,9 13,3 8 5 11 6 N 1016,2 4,8 0 0,0
25.05.2018 04:00:00 13,5 12,2 11,8 16,0 13,3 4 2 10 6 NNE 1016,2 6 0 0,0
25.05.2018 03:00:00 14,4 12,6 12,3 16,0 13,3 4 2 13 7 N 1016,4 10 0 0,0
25.05.2018 02:00:00 16,2 13,3 14,0 16,0 13,3 9 5 14 8 NNE 1016,3 17 0 0,0
25.05.2018 01:00:00 16,8 13,9 14,6 16,0 13,3 7 4 12 7 ENE 1016,4 19 0 0,0
25.05.2018 00:00:00 16,7 14,3 14,7 16,0 13,3 4 2 5 3 NE 1016,7 20 0 0,0
24.05.2018 23:00:00 17,2 13,9 15,0 16,0 13,2 3 2 12 6 S 1016,8 20 0 0,0
24.05.2018 22:00:00 18,0 14,1 16,0 16,0 13,3 9 5 11 6 NNE 1016,2 20 10 0,0
24.05.2018 21:00:00 21,6 15,0 19,0 15,9 13,2 7 4 15 8 NNE 1015,5 20 60 0,0
24.05.2018 20:00:00 23,6 13,5 20,3 15,8 13,2 10 5 15 8 NNE 1014,9 20 60 0,0
24.05.2018 19:00:00 25,4 12,3 22,4 15,7 13,2 6 3 10 6 W 1014,7 20 60 0,0
24.05.2018 18:00:00 25,7 13,2 23,6 15,6 13,2 2 1 10 6 NNE 1014,8 20 60 0,0
24.05.2018 17:00:00 24,2 13,7 23,6 15,5 13,2 6 3 16 9 ENE 1015,1 20 46 0,0
24.05.2018 16:00:00 24,7 13,6 23,8 15,3 13,2 8 5 21 11 E 1015,7 20 47 0,0
24.05.2018 15:00:00 23,5 13,9 24,0 15,2 13,2 4 2 13 7 ESE 1016,2 20 37 0,0
24.05.2018 14:00:00 23,9 15,4 26,2 15,2 13,2 5 3 16 8 ESE 1016,7 20 52 0,0
24.05.2018 13:00:00 22,4 15,3 24,5 15,1 13,2 7 4 17 9 ENE 1017,0 19 55 0,0
24.05.2018 12:00:00 21,2 16,2 21,7 15,1 13,2 6 3 14 7 NE 1017,5 13 60 0,0
24.05.2018 11:00:00 19,0 14,9 17,1 15,1 13,2 8 4 15 8 E 1017,6 8 32 0,0
24.05.2018 10:00:00 15,5 14,2 15,6 15,1 13,2 8 5 18 10 NE 1018,0 3,5 0 0,0
24.05.2018 09:00:00 14,2 13,7 13,9 15,2 13,2 8 4 17 9 ENE 1018,0 0,4 0 0,0
24.05.2018 08:00:00 12,9 12,4 11,8 15,2 13,2 6 4 14 8 NE 1017,8 0,2 0 0,0
24.05.2018 07:00:00 12,2 11,6 9,7 15,3 13,2 8 5 13 7 NNE 1017,7 0,8 4 0,0
24.05.2018 06:00:00 11,6 10,8 10,0 15,3 13,2 4 2 13 7 NNE 1017,7 1,0 0 0,0
24.05.2018 05:00:00 12,4 11,5 12,0 15,3 13,2 6 3 18 10 NE 1017,7 1,5 0 0,2
24.05.2018 04:00:00 13,0 12,1 13,0 15,4 13,2 10 6 20 11 NNE 1018,0 2,1 0 0,0
24.05.2018 03:00:00 13,4 12,3 13,3 15,4 13,2 11 6 19 11 NNE 1018,0 3,8 0 0,0
24.05.2018 02:00:00 13,4 12,3 13,2 15,4 13,2 10 6 17 9 NNE 1018,2 8 0 0,0
24.05.2018 01:00:00 13,8 12,5 12,0 15,5 13,2 10 5 16 8 NE 1018,2 14 0 0,0
24.05.2018 00:00:00 13,3 11,9 12,9 15,4 13,2 9 5 12 7 N 1018,5 19 0 0,0
23.05.2018 23:00:00 14,3 12,3 13,6 15,4 13,2 8 4 14 7 NNE 1018,5 20 0 0,0
23.05.2018 22:00:00 15,1 12,6 14,4 15,4 13,2 7 4 13 7 NE 1017,9 20 0 0,0
23.05.2018 21:00:00 17,0 13,3 16,5 15,3 13,2 10 6 21 11 ENE 1017,5 20 2 0,0
23.05.2018 20:00:00 19,7 14,9 18,8 15,2 13,2 7 4 21 11 ESE 1016,9 20 16 0,0
23.05.2018 19:00:00 21,6 13,0 19,9 15,2 13,2 10 5 22 12 ENE 1016,4 20 25 0,0
23.05.2018 18:00:00 22,1 14,2 20,8 15,0 13,2 12 6 26 14 NNE 1016,7 19 33 0,0
23.05.2018 17:00:00 21,7 13,8 22,7 15,0 13,2 11 6 28 15 NE 1016,8 19 40 0,0
23.05.2018 16:00:00 22,2 14,8 23,3 14,8 13,2 13 7 29 16 NNE 1017,2 19 52 0,0
23.05.2018 15:00:00 21,7 14,8 23,4 14,7 13,1 13 7 27 15 NNE 1017,6 18 54 0,0
23.05.2018 14:00:00 20,4 15,0 22,6 14,7 13,1 14 7 29 15 NNE 1017,9 11 47 0,0
23.05.2018 13:00:00 19,8 14,6 19,2 14,6 13,1 15 8 23 13 N 1018,4 10 51 0,0
23.05.2018 12:00:00 17,8 13,9 18,6 14,6 13,1 9 5 28 15 NNE 1018,6 8 23 0,0
23.05.2018 11:00:00 18,4 14,3 17,3 14,6 13,1 10 5 21 11 NNE 1018,3 9 55 0,0
23.05.2018 10:00:00 16,5 13,4 14,7 14,7 13,1 6 3 15 8 NNE 1018,3 9 25 0,0
23.05.2018 09:00:00 15,4 12,5 12,5 14,7 13,1 7 4 15 8 NE 1018,1 8 60 0,0
23.05.2018 08:00:00 12,5 10,7 10,9 14,8 13,1 11 6 18 10 N 1018,0 6 50 0,0
23.05.2018 07:00:00 10,6 9,8 8,2 14,9 13,1 10 5 15 8 N 1017,6 6 0 0,0
23.05.2018 06:00:00 10,0 9,2 8,1 15,0 13,1 4 2 9 5 N 1017,2 7 0 0,0
23.05.2018 05:00:00 9,8 9,0 8,3 15,0 13,1 2 1 6 3 N 1017,0 3,4 0 0,2
23.05.2018 04:00:00 9,7 8,8 8,6 15,1 13,1 4 2 9 5 NNW 1016,8 9 0 0,0
23.05.2018 03:00:00 11,5 10,6 9,6 15,1 13,1 6 3 10 6 NNW 1016,5 16 0 0,0
23.05.2018 02:00:00 11,7 10,6 9,9 15,2 13,1 6 3 9 5 NNW 1016,6 17 0 0,0
23.05.2018 01:00:00 12,2 11,1 10,9 15,2 13,1 7 4 9 5 N 1017,1 13 0 0,0
23.05.2018 00:00:00 12,9 11,6 11,6 15,2 13,1 8 4 13 7 N 1016,5 13 0 0,0
22.05.2018 23:00:00 13,5 11,7 13,0 15,2 13,0 9 5 29 16 ESE 1015,6 18 0 0,0
22.05.2018 22:00:00 16,0 11,6 14,5 15,1 13,0 16 9 29 16 NNE 1015,6 20 0 0,0
22.05.2018 21:00:00 17,0 12,5 14,8 15,1 13,1 3 2 12 6 NNE 1014,6 20 0 0,0
22.05.2018 20:00:00 18,7 13,1 16,5 15,0 13,0 2 1 16 9 WNW 1013,9 20 0 0,0
22.05.2018 19:00:00 19,0 14,3 17,9 14,9 13,0 10 5 20 11 WNW 1013,6 20 0 0,0
22.05.2018 18:00:00 21,0 12,9 18,4 14,8 13,0 15 8 28 15 W 1013,3 20 29 0,0
22.05.2018 17:00:00 22,4 13,2 19,2 14,7 13,1 18 10 34 18 SW 1013,0 20 27 0,0
22.05.2018 16:00:00 21,6 11,6 20,6 14,6 13,0 11 6 22 12 WNW 1013,2 20 35 0,0
22.05.2018 15:00:00 22,7 14,3 22,3 14,6 13,0 9 5 16 9 WNW 1013,2 20 54 0,0
22.05.2018 14:00:00 21,8 13,2 20,8 14,5 13,0 6 3 11 6 NW 1013,4 20 60 0,0
22.05.2018 13:00:00 19,9 15,3 16,9 14,5 13,0 5 3 10 5 NNW 1014,0 19 13 0,0
22.05.2018 12:00:00 16,6 14,2 14,7 14,6 13,0 6 4 10 5 N 1014,2 20 0 0,0
22.05.2018 11:00:00 14,6 13,1 13,0 14,6 13,0 4 2 38 20 WNW 1014,1 18 0 17,8
22.05.2018 10:00:00 15,4 13,4 15,3 14,7 13,0 9 5 13 7 WNW 1014,2 3,9 0 1,0
22.05.2018 09:00:00 16,3 12,6 12,8 14,8 13,0 8 4 16 9 NW 1013,7 10 45 0,0
22.05.2018 08:00:00 12,9 11,8 8,4 14,9 13,0 11 6 19 10 W 1013,7 12 60 0,0
22.05.2018 07:00:00 9,3 8,4 7,8 15,0 13,0 3 2 6 3 SSW 1012,8 12 14 0,0
22.05.2018 06:00:00 8,5 7,3 8,0 15,1 13,0 0 0 5 3 N 1012,6 18 0 0,0
22.05.2018 05:00:00 9,4 8,0 8,5 15,2 13,0 0 0 8 4 N 1012,7 20 0 0,0
22.05.2018 04:00:00 10,1 8,7 8,6 15,3 13,0 0 0 5 3 N 1012,7 20 0 0,0
22.05.2018 03:00:00 10,3 9,1 9,3 15,3 13,0 2 1 11 6 SSE 1012,5 20 0 0,0
22.05.2018 02:00:00 11,6 9,8 10,2 15,4 13,0 6 4 9 5 WNW 1012,4 20 0 0,0
22.05.2018 01:00:00 12,4 10,3 11,2 15,4 13,0 6 4 10 5 SW 1012,5 20 0 0,0
22.05.2018 00:00:00 13,6 11,1 11,9 15,4 13,0 9 5 15 8 SW 1012,8 20 0 0,0
21.05.2018 23:00:00 14,2 11,2 12,6 15,4 13,0 5 3 16 8 SSE 1012,6 20 0 0,0
21.05.2018 22:00:00 17,6 11,2 14,3 15,4 13,0 7 4 10 5 ENE 1011,7 20 7 0,0
21.05.2018 21:00:00 19,7 12,5 17,9 15,3 13,0 5 3 11 6 E 1011,3 20 60 0,0
21.05.2018 20:00:00 21,5 12,3 20,1 15,2 13,0 5 3 14 8 ENE 1010,9 20 42 0,0
21.05.2018 19:00:00 23,0 10,8 23,0 15,1 13,0 8 5 21 11 NE 1010,6 20 58 0,0
21.05.2018 18:00:00 24,2 9,7 22,7 15,0 13,0 9 5 18 10 NNW 1010,5 20 55 0,0
21.05.2018 17:00:00 22,6 11,3 22,7 14,9 13,0 7 4 16 8 NE 1010,7 20 35 0,0
21.05.2018 16:00:00 23,2 11,6 24,0 14,7 12,9 8 4 19 10 E 1011,3 20 48 0,0
21.05.2018 15:00:00 22,4 11,8 23,4 14,7 13,0 7 4 18 10 N 1011,7 20 35 0,0
21.05.2018 14:00:00 22,8 11,8 23,1 14,6 13,0 5 3 14 8 NNE 1012,1 20 39 0,0
21.05.2018 13:00:00 21,6 12,2 24,6 14,5 13,0 7 4 19 10 NNE 1012,5 20 56 0,0
21.05.2018 12:00:00 20,7 12,7 21,7 14,4 12,9 6 3 21 11 ENE 1012,8 20 60 0,0
21.05.2018 11:00:00 19,7 13,4 18,7 14,4 12,9 6 3 19 11 ENE 1012,9 20 60 0,0
21.05.2018 10:00:00 18,1 13,2 15,5 14,5 13,0 6 4 16 9 NE 1013,2 19 60 0,0
21.05.2018 09:00:00 15,5 12,1 12,3 14,5 13,0 9 5 16 9 ENE 1013,4 16 60 0,0
21.05.2018 08:00:00 12,6 10,5 10,7 14,5 12,9 12 6 19 10 NNE 1013,7 12 60 0,0
21.05.2018 07:00:00 10,7 9,5 10,6 14,6 12,9 13 7 18 10 NNE 1013,8 8 11 0,0
21.05.2018 06:00:00 11,0 9,7 10,6 14,6 12,9 9 5 18 10 NE 1013,9 11 0 0,0
21.05.2018 05:00:00 10,5 8,8 11,0 14,7 13,0 9 5 20 11 N 1014,2 10 0 0,0
21.05.2018 04:00:00 11,7 9,8 11,4 14,7 12,9 10 5 22 12 NNE 1014,5 16 0 0,0
21.05.2018 03:00:00 12,6 10,1 11,5 14,8 12,9 13 7 24 13 NNE 1014,6 20 0 0,0
21.05.2018 02:00:00 12,4 9,4 10,8 14,8 12,9 13 7 21 11 NNE 1015,2 20 0 0,0
21.05.2018 01:00:00 12,2 8,8 11,7 14,8 12,9 8 5 16 9 N 1015,5 20 0 0,0
21.05.2018 00:00:00 13,7 8,7 12,9 14,8 12,9 14 7 20 11 NNE 1015,7 20 0 0,0
20.05.2018 23:00:00 16,5 8,9 14,4 14,8 12,9 11 6 20 11 NNE 1015,7 20 0 0,0

tt = Température de l'air
td = dewpoint
tt 5cm = Température de l'air 5cm
tt -20cm = Température de l'air -20cm
tt -100cm = Température de l'air -100cm
ff = Vitesse du vent
fx = gusts
dd = Direction du vent
ppp = reduced air pressure
vv = visibility
sd = Ensoleillement
rr = Quantités de précipitations

stations d'obs. à proximité